Regional Weather Roundup
Issued by NWS

Home | Current Version | Previous Version | Graphics & Text | Print | Product List | Glossary On
Versions: 1 2 3 4 5 6 7 8 9 10 11 12 13 14 15 16 17 18 19 20 21 22 23 24 25 26 27 28 29 30 31 32 33 34 35 36 37 38 39 40 41 42 43 44 45 46 47 48 49 50
778
ASUS44 KJAN 311503
RWRMS

MISSISSIPPI HOURLY WEATHER ROUNDUP
NATIONAL WEATHER SERVICE JACKSON MS
900 AM CST SAT JAN 31 2015

NOTE: "FAIR: INDICATES FEW OR NO CLOUDS BELOW 12,000 FEET WITH NO
SIGNIFICANT WEATHER AND/OR OBSTRUCTIONS TO VISIBILITY.

MSZ001>002-007>008-010>013-018>021-025>028-034>036-311600-
NORTHWEST MISSISSIPPI

CITY           SKY/WX    TMP DP  RH WIND       PRES   REMARKS
CLARKSDALE     FAIR      39  28  65 SE9       30.37F WCI  33
CLEVELAND      FAIR      40  28  62 SE9       30.37R WCI  34
GREENWOOD      CLOUDY    40  25  55 E8        30.38R WCI  34
GREENVILLE     CLOUDY    40  28  62 SE9       30.36S WCI  34
GRENADA        FAIR      37  30  75 E9        30.39S WCI  31
OLIVE BRANCH   PTSUNNY   36  27  69 SE5       30.38S WCI  32
OXFORD         FAIR      36  21  55 E5        30.39S WCI  32
TUNICA         CLOUDY    37  28  70 E5        30.38F WCI  34
$$

MSZ003>006-009-014>017-022>024-029>033-037>039-311600-
NORTHEAST MISSISSIPPI

CITY           SKY/WX    TMP DP  RH WIND       PRES   REMARKS
COLUMBUS AFB   PTSUNNY   38  27  63 VRB1      30.40S
CORINTH        FAIR      37  28  70 SE5       30.39S WCI  34
GOLDN TRIANGLE PTSUNNY   37  25  60 CALM      30.38S
STARKVILLE     FAIR      37  27  65 E8        30.39R WCI  31
TUPELO         PTSUNNY   37  26  64 E3        30.40R
$$

MSZ040-058-311600-
CENTRAL MISSISSIPPI

CITY           SKY/WX    TMP DP  RH WIND       PRES   REMARKS
JACKSON INTL   CLOUDY    42  25  50 E8        30.34R
JACKSON HAWKNS CLOUDY    42  25  50 E6        30.34R
MERIDIAN KEY   PTSUNNY   40  27  59 NE7       30.38S
MERIDIAN NAS   PTSUNNY   39  27  62 E6        30.39R WCI  35
RAYMOND        FAIR      43  37  81 MISG      30.34S
VICKSBURG      CLOUDY    43  29  57 E12       30.34S
$$

MSZ059>079-311600-
SOUTH MISSISSIPPI

CITY           SKY/WX    TMP DP  RH WIND       PRES   REMARKS
BROOKHAVEN     FAIR      43  28  56 SE3       30.33S
HATTIESBURG    SUNNY     42  30  62 E5        30.37S
MCCOMB         MOSUNNY   43  27  53 SE12      30.33S
NATCHEZ        MOSUNNY   45  28  53 SE14      30.32R
PINE BELT      SUNNY     39  27  60 NE7       30.37R WCI  34
$$

MSZ080>082-311600-
COASTAL MISSISSIPPI

CITY           SKY/WX    TMP DP  RH WIND       PRES   REMARKS
BAY ST LOUIS   SUNNY     45  27  49 E6        30.35R
BILOXI         SUNNY     45  29  53 E10       30.34R
PASCAGOULA     SUNNY     45  31  58 E7        30.35R
GULFPORT       SUNNY     45  29  53 E8        30.35R
$$



USA.gov is the U.S. government's official web portal to all federal, state and local government web resources and services.